This demonstration page uses our WeatherBlox Daily Observations layout. Learn more.

Hourly Observations for September 7, 2015

Temp ( °F °C ) Dew Point ( °F °C ) Humidity (%) Winds ( mph kmh ) Pressure ( in mb ) Visibility ( mi km ) Precip ( " mm )
12:15 am 00:15 Clear 64 17.5 61 15.9 90 90 NNE 6 9 29.97 1015 10 16.0934 0 0
12:35 am 00:35 Clear 64 17.5 60 15.8 90 90 NNE 7 11 29.97 1015 10 16.0934 0 0
12:55 am 00:55 Clear 63 17.1 60 15.6 91 91 NNE 7 11 29.97 1015 10 16.0934 0 0
1:15 am 01:15 Clear 63 17.1 60 15.5 90 90 NNE 7 11 29.97 1015 10 16.0934 0 0
1:35 am 01:35 Clear 63 17.1 60 15.5 90 90 NNE 7 11 29.97 1015 10 16.0934 0 0
1:55 am 01:55 Clear 63 17.1 60 15.3 89 89 NE 8 13 29.97 1015 10 16.0934 0 0
2:15 am 02:15 Clear 63 17.2 60 15.4 89 89 NE 9 15 29.97 1015 10 16.0934 0 0
2:35 am 02:35 Clear 63 17.2 60 15.5 90 90 NE 10 17 29.97 1015 10 16.0934 0 0
2:55 am 02:55 Clear 64 17.5 60 15.7 89 89 NE 12 19 29.94 1014 10 16.0934 0 0
3:15 am 03:15 Clear 64 17.7 61 16 90 90 NE 13 20 29.94 1014 10 16.0934 0 0
3:35 am 03:35 Partly Cloudy 64 17.8 61 16.2 90 90 NE 12 19 29.94 1014 10 16.0934 0 0
3:55 am 03:55 Mostly Cloudy 64 18 62 16.5 91 91 NE 12 19 29.94 1014 10 16.0934 0 0
4:15 am 04:15 Partly Cloudy 63 17.4 61 16 92 92 NE 9 15 29.94 1014 10 16.0934 0 0
4:35 am 04:35 Clear 63 17.2 61 16 93 93 NE 8 13 29.94 1014 10 16.0934 0 0
4:55 am 04:55 Clear 63 17 61 15.9 93 93 NE 8 13 29.94 1014 10 16.0934 0 0
5:15 am 05:15 Clear 62 16.8 60 15.7 93 93 NE 8 13 29.94 1014 10 16.0934 0 0
5:35 am 05:35 Clear 62 16.7 60 15.7 94 94 NE 9 15 29.94 1014 10 16.0934 0 0
5:55 am 05:55 Clear 62 16.6 60 15.7 94 94 ENE 10 17 29.91 1013 7 11.26538 0 0
6:15 am 06:15 Clear 62 16.6 60 15.7 94 94 ENE 8 13 29.91 1013 7 11.26538 0 0
6:35 am 06:35 Mostly Cloudy 63 17.1 61 16.3 95 95 NE 8 13 29.94 1014 7 11.26538 0 0
6:55 am 06:55 Cloudy with Mist and Fog 63 17.4 62 16.6 95 95 NE 8 13 29.94 1014 4 6.43736 0 0
7:15 am 07:15 Cloudy with Mist and Fog 64 18 63 17.1 95 95 ENE 7 11 29.94 1014 1 1.60934 0 0
7:35 am 07:35 Cloudy with Fog 65 18.1 64 17.5 96 96 ENE 7 11 29.94 1014 0.25 0.402335 0 0
7:55 am 07:55 Cloudy with Fog 65 18.5 64 17.7 95 95 ENE 8 13 29.94 1014 0.25 0.402335 0 0
8:15 am 08:15 Cloudy with Fog 66 18.7 64 18 96 96 NE 9 15 29.94 1014 0.5 0.80467 0 0
8:35 am 08:35 Cloudy with Fog 66 18.7 64 18 96 96 NW 8 13 30 1016 0.5 0.80467 0 0
8:55 am 08:55 Cloudy with Fog 65 18.2 64 17.6 96 96 NNE 12 19 29.94 1014 0.5 0.80467 0 0
9:15 am 09:15 Cloudy with Mist and Fog 65 18.6 64 18 96 96 ENE 10 17 29.94 1014 1.25 2.011675 0 0
9:35 am 09:35 Cloudy with Mist and Fog 67 19.2 65 18.5 96 96 E 16 26 29.91 1013 3 4.82802 0 0
9:55 am 09:55 Cloudy with Mist and Fog 67 19.3 65 18.5 95 95 E 17 28 29.91 1013 3 4.82802 0 0
10:15 am 10:15 Cloudy with Mist and Fog 67 19.5 65 18.6 95 95 E 12 19 29.88 1012 5 8.0467 0 0
10:35 am 10:35 Cloudy with Mist and Fog 68 20.1 66 19.1 94 94 E 14 22 29.88 1012 5 8.0467 0 0
10:55 am 10:55 Cloudy 69 20.6 67 19.3 92 92 E 13 20 29.88 1012 7 11.26538 0 0
11:15 am 11:15 Cloudy with Mist and Fog 70 20.9 67 19.5 92 92 E 14 22 29.88 1012 4 6.43736 0 0
11:35 am 11:35 Cloudy with Mist and Fog 70 21.1 68 19.8 92 92 ENE 9 15 29.91 1013 3 4.82802 0 0
11:55 am 11:55 Cloudy with Mist and Fog 70 21 67 19.7 92 92 NW 10 17 29.94 1014 2.5 4.02335 0 0
12:15 pm 12:15 Cloudy with Light Rain 68 20 66 19 94 94 N 7 11 29.94 1014 1 1.60934 0 0
12:35 pm 12:35 Cloudy with Mist and Fog 68 20.1 67 19.2 95 95 NNE 8 13 29.91 1013 1.75 2.816345 0 0
12:55 pm 12:55 Cloudy with Nearby Thunderstorms 68 20.1 67 19.2 95 95 NNE 10 17 29.91 1013 2 3.21868 0 0
1:15 pm 13:15 Cloudy with Mist and Fog 69 20.5 67 19.6 95 95 NE 14 22 29.88 1012 5 8.0467 0 0
1:35 pm 13:35 Cloudy 70 21.2 68 20 93 93 NNE 13 20 29.88 1012 10 16.0934 0 0
1:55 pm 13:55 Cloudy 71 21.9 68 20 89 89 NNE 8 13 29.88 1012 10 16.0934 0 0
2:15 pm 14:15 Cloudy 72 22.2 68 20 87 87 NE 8 13 29.88 1012 10 16.0934 0 0
2:35 pm 14:35 Cloudy 73 22.9 69 20.3 85 85 NE 9 15 29.85 1011 10 16.0934 0 0
2:55 pm 14:55 Cloudy 73 23 69 20.4 85 85 ENE 7 11 29.83 1010 7 11.26538 0 0
3:15 pm 15:15 Cloudy 74 23.1 69 20.5 85 85 NE 8 13 29.83 1010 7 11.26538 0 0
3:35 pm 15:35 Mostly Cloudy 77 25.2 69 20.3 74 74 ENE 6 9 29.8 1009 10 16.0934 0 0
3:55 pm 15:55 Partly Cloudy 79 26 68 20.1 70 70 ENE 8 13 29.77 1008 10 16.0934 0 0
4:15 pm 16:15 Sunny 80 26.7 68 20.1 67 67 E 6 9 29.77 1008 10 16.0934 0 0
4:35 pm 16:35 Mostly Cloudy 80 26.6 68 19.8 66 66 E 6 9 29.74 1007 10 16.0934 0 0
4:55 pm 16:55 Partly Cloudy 81 27 68 20 66 66 ENE 6 9 29.74 1007 10 16.0934 0 0
5:15 pm 17:15 Mostly Cloudy 80 26.6 67 19.5 65 65 NE 3 6 29.74 1007 10 16.0934 0 0
5:35 pm 17:35 Mostly Cloudy 80 26.8 67 19.5 64 64 Calm 29.74 1007 10 16.0934 0 0
5:55 pm 17:55 Mostly Cloudy 80 26.5 68 20.1 68 68 NE 3 6 29.74 1007 10 16.0934 0 0
6:15 pm 18:15 Mostly Cloudy 80 26.8 68 20 66 66 NE 5 7 29.74 1007 10 16.0934 0 0
6:35 pm 18:35 Partly Cloudy 81 27 69 20.3 67 67 NE 5 7 29.74 1007 10 16.0934 0 0
6:55 pm 18:55 Partly Cloudy 80 26.8 69 20.3 68 68 ENE 6 9 29.74 1007 10 16.0934 0 0
7:15 pm 19:15 Partly Cloudy 80 26.6 68 20.1 68 68 ENE 6 9 29.74 1007 10 16.0934 0 0
7:35 pm 19:35 Sunny 78 25.7 68 20.2 72 72 ENE 6 9 29.74 1007 10 16.0934 0 0
7:55 pm 19:55 Sunny 76 24.5 69 20.7 79 79 NNE 3 6 29.77 1008 10 16.0934 0 0
8:15 pm 20:15 Partly Cloudy 74 23.5 69 20.8 85 85 NE 3 6 29.8 1009 10 16.0934 0 0
8:35 pm 20:35 Partly Cloudy 74 23.1 69 20.5 85 85 NNE 5 7 29.8 1009 10 16.0934 0 0
8:55 pm 20:55 Mostly Cloudy 72 22.3 69 20.5 90 90 NE 5 7 29.83 1010 10 16.0934 0 0
9:15 pm 21:15 Partly Cloudy 73 22.6 69 20.6 89 89 Calm 29.8 1009 7 11.26538 0 0
9:35 pm 21:35 Partly Cloudy 72 22.2 69 20.5 90 90 NNW 5 7 29.85 1011 7 11.26538 0 0
9:55 pm 21:55 Partly Cloudy 72 22.2 69 20.5 90 90 WNW 5 7 29.85 1011 10 16.0934 0 0
10:15 pm 22:15 Mostly Cloudy 72 22 69 20.3 90 90 NNE 6 9 29.85 1011 7 11.26538 0.02 0.508
10:35 pm 22:35 Mostly Cloudy with Light Rain 71 21.7 69 20.6 94 94 Calm 29.85 1011 5 8.0467 0.03 0.762
10:55 pm 22:55 Mostly Cloudy 72 22.2 70 21.2 94 94 E 8 13 29.85 1011 7 11.26538 0.03 0.762
11:15 pm 23:15 Mostly Cloudy 73 22.5 70 21.1 92 92 E 8 13 29.8 1009 7 11.26538 0 0
11:35 pm 23:35 Partly Cloudy 72 22.2 70 21 93 93 E 10 17 29.83 1010 7 11.26538 0 0
11:55 pm 23:55 Mostly Cloudy with Mist and Fog 72 22.2 70 20.9 92 92 SE 6 9 29.83 1010 5 8.0467 0 0

Powered by AerisWeather